This demonstration page uses our WeatherBlox Daily Observations layout. Learn more.

Hourly Observations for October 15, 2015

Temp ( °F °C ) Dew Point ( °F °C ) Humidity (%) Winds ( mph kmh ) Pressure ( in mb ) Visibility ( mi km ) Precip ( " mm )
12:15 am 00:15 Clear 47 8.1 34 1.2 62 62 Calm 30.09 1019 10 16.0934 0 0
12:35 am 00:35 Clear 46 7.9 35 1.6 65 65 ENE 3 6 30.09 1019 10 16.0934 0 0
12:55 am 00:55 Clear 46 8 35 1.5 64 64 ENE 3 6 30.09 1019 10 16.0934 0 0
1:15 am 01:15 Clear 47 8.1 35 1.5 63 63 Calm 30.12 1020 10 16.0934 0 0
1:35 am 01:35 Clear 45 7.3 35 1.6 67 67 Calm 30.09 1019 10 16.0934 0 0
1:55 am 01:55 Clear 44 6.7 35 1.8 71 71 Calm 30.12 1020 10 16.0934 0 0
2:15 am 02:15 Clear 44 6.5 35 1.8 72 72 Calm 30.12 1020 10 16.0934 0 0
2:35 am 02:35 Clear 43 6 35 1.9 75 75 Calm 30.15 1021 10 16.0934 0 0
2:55 am 02:55 Clear 44 6.7 35 1.8 71 71 Calm 30.12 1020 10 16.0934 0 0
3:15 am 03:15 Clear 42 5.8 36 2 77 77 Calm 30.15 1021 10 16.0934 0 0
3:35 am 03:35 Clear 44 6.4 36 2 74 74 Calm 30.15 1021 10 16.0934 0 0
3:55 am 03:55 Clear 42 5.7 36 2.1 78 78 Calm 30.15 1021 10 16.0934 0 0
4:15 am 04:15 Clear 42 5.4 35 1.8 78 78 Calm 30.15 1021 10 16.0934 0 0
4:35 am 04:35 Clear 42 5.6 36 2.2 79 79 Calm 30.15 1021 10 16.0934 0 0
4:55 am 04:55 Clear 43 6 36 2.4 78 78 N 9 15 30.15 1021 10 16.0934 0 0
5:15 am 05:15 Clear 43 6 37 2.7 80 80 NNE 6 9 30.15 1021 10 16.0934 0 0
5:35 am 05:35 Clear 44 6.9 37 2.7 75 75 NNE 7 11 30.18 1022 10 16.0934 0 0
5:55 am 05:55 Clear 44 6.5 37 2.5 76 76 NNE 6 9 30.18 1022 10 16.0934 0 0
6:15 am 06:15 Clear 45 7.1 37 2.7 74 74 NNE 6 9 30.18 1022 10 16.0934 0 0
6:35 am 06:35 Clear 44 6.6 37 2.6 76 76 NNE 7 11 30.18 1022 10 16.0934 0 0
6:55 am 06:55 Clear 43 6.2 37 2.5 77 77 NE 5 7 30.18 1022 10 16.0934 0 0
7:15 am 07:15 Clear 44 6.9 37 2.6 74 74 Calm 30.18 1022 10 16.0934 0 0
7:35 am 07:35 Clear 45 7 37 2.6 74 74 Calm 30.18 1022 10 16.0934 0 0
7:55 am 07:55 Sunny 44 6.5 37 2.6 76 76 NNE 5 7 30.18 1022 10 16.0934 0 0
8:15 am 08:15 Sunny 45 7.1 37 3 75 75 NNE 3 6 30.18 1022 10 16.0934 0 0
8:35 am 08:35 Sunny 47 8.3 38 3.6 73 73 Calm 30.15 1021 10 16.0934 0 0
8:55 am 08:55 Sunny 49 9.3 39 3.9 69 69 Calm 30.18 1022 10 16.0934 0 0
9:15 am 09:15 Sunny 51 10.6 40 4.3 65 65 N 3 6 30.15 1021 10 16.0934 0 0
9:35 am 09:35 Sunny 54 12.3 39 4.1 58 58 NNE 8 13 30.18 1022 10 16.0934 0 0
9:55 am 09:55 Sunny 57 13.7 40 4.3 53 53 NNE 8 13 30.18 1022 10 16.0934 0 0
10:15 am 10:15 Sunny 60 15.6 38 3.6 45 45 NE 7 11 30.15 1021 10 16.0934 0 0
10:35 am 10:35 Sunny 63 17 37 3 39 39 NE 9 15 30.18 1022 10 16.0934 0 0
10:55 am 10:55 Sunny 65 18.3 36 2.4 35 35 NE 9 15 30.18 1022 10 16.0934 0 0
11:15 am 11:15 Sunny 66 18.8 35 1.5 32 32 NE 10 17 30.15 1021 10 16.0934 0 0
11:35 am 11:35 Sunny 67 19.6 34 1.3 30 30 NNE 13 20 30.15 1021 10 16.0934 0 0
11:55 am 11:55 Sunny 70 20.9 32 0.2 25 25 NNE 18 30 30.15 1021 10 16.0934 0 0
12:15 pm 12:15 Sunny 70 20.9 33 0.3 25 25 NNE 20 31 30.18 1022 10 16.0934 0 0
12:35 pm 12:35 Partly Cloudy 69 20.4 35 1.4 28 28 NNE 20 31 30.18 1022 10 16.0934 0 0
12:55 pm 12:55 Mostly Cloudy 68 20.1 33 0.4 27 27 NNE 20 31 30.18 1022 10 16.0934 0 0
1:15 pm 13:15 Cloudy 67 19.7 31 -0.3 26 26 NNE 16 26 30.18 1022 10 16.0934 0 0
1:35 pm 13:35 Cloudy 68 20.1 31 -0.5 25 25 NNE 18 30 30.18 1022 10 16.0934 0 0
1:55 pm 13:55 Mostly Cloudy 69 20.4 31 -0.5 25 25 NNE 15 24 30.18 1022 10 16.0934 0 0
2:15 pm 14:15 Sunny 69 20.8 30 -1 23 23 N 17 28 30.18 1022 10 16.0934 0 0
2:35 pm 14:35 Mostly Cloudy 69 20.8 30 -1 23 23 N 17 28 30.18 1022 10 16.0934 0 0
2:55 pm 14:55 Cloudy 67 19.3 30 -1.2 25 25 N 16 26 30.18 1022 10 16.0934 0 0
3:15 pm 15:15 Mostly Cloudy 66 18.7 29 -1.5 26 26 NE 15 24 30.18 1022 10 16.0934 0 0
3:35 pm 15:35 Mostly Cloudy 66 18.7 29 -1.9 25 25 NNE 17 28 30.18 1022 10 16.0934 0 0
3:55 pm 15:55 Partly Cloudy 67 19.3 28 -2.2 23 23 NNE 17 28 30.18 1022 10 16.0934 0 0
4:15 pm 16:15 Sunny 67 19.3 27 -2.7 23 23 NNE 14 22 30.18 1022 10 16.0934 0 0
4:35 pm 16:35 Sunny 67 19.3 26 -3.4 21 21 NNE 14 22 30.21 1023 10 16.0934 0 0
4:55 pm 16:55 Sunny 67 19.2 25 -4 21 21 NNE 15 24 30.21 1023 10 16.0934 0 0
5:15 pm 17:15 Sunny 66 18.9 23 -4.8 20 20 NNE 16 26 30.21 1023 10 16.0934 0 0
5:35 pm 17:35 Sunny 65 18.4 24 -4.6 21 21 NNE 18 30 30.24 1024 10 16.0934 0 0
5:55 pm 17:55 Sunny 64 17.8 24 -4.4 22 22 NNE 17 28 30.27 1025 10 16.0934 0 0
6:15 pm 18:15 Sunny 63 17.2 25 -3.9 24 24 NNE 13 20 30.27 1025 10 16.0934 0 0
6:35 pm 18:35 Sunny 62 16.4 26 -3.5 26 26 NNE 13 20 30.27 1025 10 16.0934 0 0
6:55 pm 18:55 Sunny 59 15 26 -3.2 29 29 NNE 9 15 30.3 1026 10 16.0934 0 0
7:15 pm 19:15 Clear 56 13.2 26 -3.2 32 32 NNE 8 13 30.33 1027 10 16.0934 0 0
7:35 pm 19:35 Clear 52 11.3 26 -3.2 36 36 NNE 5 7 30.36 1028 10 16.0934 0 0
7:55 pm 19:55 Clear 49 9.7 26 -3.1 41 41 NNE 6 9 30.36 1028 10 16.0934 0 0
8:15 pm 20:15 Clear 47 8.6 27 -2.7 45 45 NNE 5 7 30.42 1030 10 16.0934 0 0
8:35 pm 20:35 Clear 47 8.5 27 -2.6 46 46 NNE 6 9 30.42 1030 10 16.0934 0 0
8:55 pm 20:55 Clear 48 8.7 28 -2.5 46 46 NNE 5 7 30.42 1030 10 16.0934 0 0
9:15 pm 21:15 Clear 47 8.5 28 -2.5 46 46 N 3 6 30.45 1031 10 16.0934 0 0
9:35 pm 21:35 Clear 47 8.1 28 -2 49 49 N 3 6 30.45 1031 10 16.0934 0 0
9:55 pm 21:55 Clear 45 7.2 28 -2 52 52 N 6 9 30.45 1031 10 16.0934 0 0
10:15 pm 22:15 Clear 45 7.4 28 -2 52 52 N 5 7 30.48 1032 10 16.0934 0 0
10:35 pm 22:35 Clear 45 7.1 29 -1.8 54 54 N 3 6 30.48 1032 10 16.0934 0 0
10:55 pm 22:55 Clear 43 6.3 29 -1.7 57 57 N 5 7 30.5 1033 10 16.0934 0 0
11:15 pm 23:15 Clear 44 6.8 29 -1.4 56 56 Calm 30.48 1032 10 16.0934 0 0
11:35 pm 23:35 Clear 44 6.4 29 -1.4 58 58 N 3 6 30.5 1033 10 16.0934 0 0
11:55 pm 23:55 Clear 42 5.3 30 -1.1 64 64 NNW 5 7 30.53 1034 10 16.0934 0 0

Powered by AerisWeather